| time (UTC) | temp C | wind direction | speed KPH | gust KPH | rain 1hr cm | rain 24hr cm | rain mn cm | humidity % | barometer mb |
| 20260505124516 | 16 | 212 | 9.7 | 22.5 | 0.00 | 0.00 | 0.00 | 72 | 1012.3 |
| 20260505123020 | 15 | 219 | 6.4 | 24.1 | 0.00 | 0.00 | 0.00 | 74 | 1012.1 |
| 20260505121522 | 15 | 264 | 8.0 | 17.7 | 0.00 | 0.00 | 0.00 | 74 | 1012.3 |
| 20260505120036 | 15 | 301 | 4.8 | 20.9 | 0.00 | 0.00 | 0.00 | 77 | 1012.4 |
| 20260505114512 | 14 | 209 | 11.3 | 20.9 | 0.00 | 0.00 | 0.00 | 77 | 1012.5 |
| 20260505113015 | 13 | 277 | 8.0 | 24.1 | 0.00 | 0.00 | 0.00 | 78 | 1012.5 |
| 20260505111529 | 13 | 135 | 3.2 | 12.9 | 0.00 | 0.00 | 0.00 | 80 | 1012.5 |
| 20260505101519 | 11 | 174 | 3.2 | 16.1 | 0.00 | 0.00 | 0.00 | 84 | 1012.5 |
| 20260505100029 | 11 | 176 | 4.8 | 14.5 | 0.00 | 0.00 | 0.00 | 84 | 1012.4 |
| 20260505094524 | 11 | 221 | 4.8 | 14.5 | 0.00 | 0.00 | 0.00 | 84 | 1012.2 |
| 20260505093026 | 11 | 238 | 4.8 | 12.9 | 0.00 | 0.00 | 0.00 | 84 | 1012.2 |
| 20260505091519 | 11 | 225 | 3.2 | 14.5 | 0.00 | 0.00 | 0.00 | 84 | 1012.2 |
| 20260505090021 | 11 | 211 | 6.4 | 16.1 | 0.00 | 0.00 | 0.00 | 85 | 1012.2 |
| 20260505084533 | 11 | 212 | 3.2 | 14.5 | 0.00 | 0.00 | 0.00 | 85 | 1012.1 |
| 20260505083043 | 11 | 237 | 4.8 | 16.1 | 0.00 | 0.00 | 0.00 | 86 | 1012.3 |
| 20260505081527 | 11 | 188 | 3.2 | 19.3 | 0.00 | 0.00 | 0.00 | 86 | 1012.3 |
| 20260505080024 | 11 | 221 | 6.4 | 20.9 | 0.00 | 0.00 | 0.00 | 86 | 1012.4 |
| 20260505074517 | 11 | 237 | 3.2 | 16.1 | 0.00 | 0.00 | 0.00 | 85 | 1012.4 |
| 20260505073020 | 11 | 221 | 4.8 | 16.1 | 0.00 | 0.00 | 0.00 | 85 | 1012.4 |
| 20260505071510 | 11 | 148 | 3.2 | 14.5 | 0.00 | 0.00 | 0.00 | 85 | 1012.4 |
| 20260505070015 | 11 | 244 | 8.0 | 19.3 | 0.00 | 0.00 | 0.00 | 86 | 1012.4 |
| 20260505064519 | 11 | 211 | 4.8 | 14.5 | 0.00 | 0.00 | 0.00 | 86 | 1012.3 |
| 20260505063024 | 11 | 229 | 4.8 | 20.9 | 0.00 | 0.00 | 0.00 | 86 | 1012.3 |
| 20260505061507 | 11 | 224 | 4.8 | 14.5 | 0.00 | 0.00 | 0.00 | 85 | 1012.2 |
| 20260505060012 | 11 | 84 | 3.2 | 16.1 | 0.00 | 0.00 | 0.00 | 85 | 1012.3 |
| 20260505054518 | 11 | 249 | 4.8 | 17.7 | 0.00 | 0.00 | 0.00 | 85 | 1012.3 |
| 20260505053019 | 11 | 245 | 6.4 | 17.7 | 0.00 | 0.00 | 0.00 | 84 | 1012.3 |
| 20260505051522 | 11 | 227 | 8.0 | 16.1 | 0.00 | 0.00 | 0.00 | 83 | 1012.3 |
| 20260505041520 | 11 | 186 | 4.8 | 16.1 | 0.00 | 0.00 | 0.00 | 80 | 1012.4 |
| 20260505040024 | 11 | 247 | 4.8 | 17.7 | 0.00 | 0.00 | 0.00 | 79 | 1012.6 |
| 20260505034511 | 11 | 221 | 8.0 | 16.1 | 0.00 | 0.00 | 0.00 | 79 | 1012.7 |
| 20260505033015 | 11 | 226 | 8.0 | 20.9 | 0.00 | 0.00 | 0.00 | 78 | 1012.6 |
| 20260505031518 | 11 | 238 | 6.4 | 19.3 | 0.00 | 0.00 | 0.00 | 77 | 1012.6 |
| 20260505030024 | 11 | 167 | 9.7 | 22.5 | 0.00 | 0.00 | 0.00 | 77 | 1012.7 |
| 20260505024526 | 12 | 238 | 11.3 | 25.7 | 0.00 | 0.00 | 0.00 | 76 | 1012.7 |
| 20260505023013 | 12 | 226 | 12.9 | 25.7 | 0.00 | 0.00 | 0.00 | 76 | 1012.7 |
| 20260505021515 | 12 | 252 | 12.9 | 27.4 | 0.00 | 0.00 | 0.00 | 75 | 1012.5 |
| 20260505020033 | 12 | 301 | 8.0 | 29.0 | 0.00 | 0.00 | 0.00 | 75 | 1012.4 |
| 20260505014535 | 12 | 212 | 8.0 | 25.7 | 0.00 | 0.00 | 0.00 | 74 | 1012.3 |
| 20260505011514 | 12 | 213 | 8.0 | 25.7 | 0.00 | 0.00 | 0.00 | 70 | 1011.9 |
| 20260505010017 | 12 | 242 | 8.0 | 30.6 | 0.00 | 0.00 | 0.00 | 68 | 1011.7 |
| 20260505004507 | 12 | 212 | 14.5 | 29.0 | 0.00 | 0.00 | 0.00 | 66 | 1011.5 |
| 20260505003007 | 12 | 201 | 9.7 | 22.5 | 0.00 | 0.00 | 0.00 | 62 | 1011.2 |
| 20260505001513 | 12 | 232 | 8.0 | 22.5 | 0.00 | 0.00 | 0.00 | 61 | 1011.1 |
| 20260505000016 | 12 | 231 | 12.9 | 37.0 | 0.00 | 0.00 | 0.00 | 60 | 1011.1 |
| 20260504234519 | 12 | 234 | 8.0 | 33.8 | 0.00 | 0.00 | 0.00 | 61 | 1010.8 |
| 20260504233006 | 13 | 194 | 14.5 | 32.2 | 0.00 | 0.00 | 0.00 | 61 | 1010.6 |
| 20260504231508 | 13 | 226 | 11.3 | 24.1 | 0.00 | 0.00 | 0.00 | 60 | 1010.5 |
| 20260504230015 | 13 | 221 | 12.9 | 29.0 | 0.00 | 0.00 | 0.00 | 60 | 1010.4 |
| 20260504224519 | 13 | 221 | 11.3 | 32.2 | 0.00 | 0.00 | 0.00 | 58 | 1010.3 |
| 20260504223024 | 14 | 207 | 11.3 | 32.2 | 0.00 | 0.00 | 0.00 | 55 | 1010.2 |
| 20260504221504 | 15 | 211 | 12.9 | 25.7 | 0.00 | 0.00 | 0.00 | 54 | 1010.3 |
| 20260504220010 | 15 | 197 | 11.3 | 29.0 | 0.00 | 0.00 | 0.00 | 53 | 1010.4 |
| 20260504214518 | 15 | 183 | 11.3 | 32.2 | 0.00 | 0.00 | 0.00 | 53 | 1010.4 |
| 20260504213026 | 16 | 248 | 8.0 | 30.6 | 0.00 | 0.00 | 0.00 | 52 | 1010.5 |
| 20260504211533 | 16 | 238 | 11.3 | 37.0 | 0.00 | 0.00 | 0.00 | 49 | 1010.6 |
| 20260504210010 | 17 | 324 | 9.7 | 30.6 | 0.00 | 0.00 | 0.00 | 46 | 1010.3 |
| 20260504204515 | 17 | 173 | 6.4 | 25.7 | 0.00 | 0.00 | 0.00 | 44 | 1010.2 |
| 20260504203019 | 17 | 250 | 6.4 | 27.4 | 0.00 | 0.00 | 0.00 | 41 | 1010.0 |
| 20260504201523 | 17 | 252 | 16.1 | 49.9 | 0.00 | 0.00 | 0.00 | 37 | 1010.0 |
| 20260504200026 | 17 | 252 | 14.5 | 40.2 | 0.00 | 0.00 | 0.00 | 36 | 1010.0 |
| 20260504194512 | 17 | 262 | 19.3 | 45.1 | 0.00 | 0.00 | 0.00 | 33 | 1009.8 |
| 20260504193014 | 17 | 333 | 16.1 | 40.2 | 0.00 | 0.00 | 0.00 | 36 | 1009.8 |
| 20260504191519 | 17 | 237 | 16.1 | 38.6 | 0.00 | 0.00 | 0.00 | 37 | 1010.0 |
| 20260504190022 | 18 | 199 | 16.1 | 35.4 | 0.00 | 0.00 | 0.00 | 36 | 1010.0 |
| 20260504184536 | 18 | 224 | 12.9 | 38.6 | 0.00 | 0.00 | 0.00 | 37 | 1009.9 |
| 20260504183012 | 18 | 269 | 11.3 | 40.2 | 0.00 | 0.00 | 0.00 | 38 | 1009.8 |
| 20260504181518 | 18 | 214 | 16.1 | 35.4 | 0.00 | 0.00 | 0.00 | 32 | 1009.6 |
| 20260504180024 | 18 | 160 | 9.7 | 38.6 | 0.00 | 0.00 | 0.00 | 33 | 1009.6 |
| 20260504174523 | 18 | 224 | 8.0 | 25.7 | 0.00 | 0.00 | 0.00 | 37 | 1009.7 |
| 20260504173026 | 18 | 176 | 12.9 | 33.8 | 0.00 | 0.00 | 0.00 | 38 | 1010.1 |
| 20260504171514 | 18 | 245 | 6.4 | 25.7 | 0.00 | 0.00 | 0.00 | 39 | 1010.2 |